THOR ABLESTAR DEB, 147

Orbit data source: Space-Track

THOR ABLESTAR DEB, 147 is space debris in LEO originally from a launch on Thu, 29 Jun 1961 UTC launched from the Air Force Eastern Test Range (AFETR). Debris objects in space refer to the collection of defunct objects orbiting the Earth. Examples of debris include non-operational satellites, rocket bodies, and fragments generated from explosions, collisions, or faulty payload assembly.

Loading next visibility...
Identifier
147, 1961-015AH
Orbit
LEO
Country
Flag of USUS
Related business
Manufacturer
Unknown
Mission
Spacecraft
Bus & Motor
Unknown
Mass
Unknown
Launch date (UTC)
1961-06-29 (64 years ago)
Launch vehicle
Unknown
Launch site
Air Force Eastern Test Range (AFETR)
Object type
Payload
Rocket body
Debris
Shape & HBR
Unknown
Radar Cross Section
Medium (>0.1 m² and <1 m²)

Expand to show TLE details & history
Last TLE update: 14 hours ago

TLE from 14 hours ago
0 THOR ABLESTAR DEB
1 00147U 61015AH  25260.24525259  .00000753  00000-0  36049-3 0  9994
2 00147  66.6192 349.9501 0060150 267.6648  91.7558 14.23580705295608
Epoch: 2025-09-17T05:53Z
TLE epoch observation values (Epoch: 2025-09-17T05:53:09.823Z)
Latitude
-0.00008°
Longitude
-94.76483°
Altitude
816.948 km
Speed
7.444 km/s
True Right ascension
23h 19m 48s
True Declination
0° 00' 00"
Sunlit
Object was in full shadow at epoch
Visualization orbit readout
Latitude
Unknown
Longitude
Unknown
Altitude
Unknown
Speed
Unknown
Apparent Right ascension
Unknown
Apparent Declination
Unknown
Sunlit
N/A
Visualization observer readout
Local Sidereal Time
13:00:15
Azimuth
Unknown
Elevation
Unknown
Doppler factor
Unknown
Orbital elements
Apogee altitude
854.904 km
Perigee altitude
768.411 km
Semi-major axis
7,189.795 km
Eccentricity
0.00602
Inclination
66.6192°
RAAN
349.9501°
Arg. of periapsis
267.6648°
True anomaly
92.44457°
Mean anomaly
91.7558°
Eccentric anomaly
92.1002°
Mean motion
3.56015 °/min
Orbital period
101.12 mins
BSTAR
0.00036049
Loading maneuver chart data...
Computing Atmospheric mass density...

Documentation

Showing up to 5 results
|